| time (UTC) | temp F | wind direction | speed MPH | gust MPH | rain 1hr in | rain 24hr in | rain mn in | humidity % | barometer mb |
| 20260902092003 | 71 | 45 | 0.0 | 0.0 | 0.00 | 0.00 | 0.00 | 77 | 1021.9 |
| 20260902091503 | 69 | 45 | 0.0 | 0.0 | 0.00 | 0.00 | 0.00 | 77 | 1021.9 |
| 20260902091004 | 69 | 45 | 0.0 | 0.0 | 0.00 | 0.00 | 0.00 | 77 | 1021.9 |
| 20260902090005 | 68 | 45 | 0.0 | 0.0 | 0.00 | 0.00 | 0.00 | 79 | 1021.9 |
| 20260902085004 | 66 | 45 | 0.0 | 2.0 | 0.00 | 0.00 | 0.00 | 82 | 1022.0 |
| 20260902084503 | 66 | 45 | 0.0 | 2.0 | 0.00 | 0.00 | 0.00 | 83 | 1021.9 |
| 20260902084003 | 65 | 45 | 0.0 | 2.0 | 0.00 | 0.00 | 0.00 | 84 | 1021.8 |
| 20260902083503 | 65 | 45 | 0.0 | 1.0 | 0.00 | 0.00 | 0.00 | 84 | 1021.8 |
| 20260902083005 | 65 | 45 | 0.0 | 0.0 | 0.00 | 0.00 | 0.00 | 85 | 1021.8 |
| 20260902082503 | 64 | 45 | 0.0 | 1.0 | 0.00 | 0.00 | 0.00 | 86 | 1021.8 |
| 20260902082004 | 64 | 45 | 0.0 | 2.0 | 0.00 | 0.00 | 0.00 | 86 | 1021.8 |
| 20260902081503 | 64 | 43 | 0.0 | 2.0 | 0.00 | 0.00 | 0.00 | 87 | 1021.7 |
| 20260902081004 | 63 | 42 | 0.0 | 0.0 | 0.00 | 0.00 | 0.00 | 87 | 1021.8 |
| 20260902080503 | 63 | 42 | 0.0 | 0.0 | 0.00 | 0.00 | 0.00 | 87 | 1021.8 |
| 20260902080005 | 62 | 42 | 0.0 | 0.0 | 0.00 | 0.00 | 0.00 | 89 | 1021.8 |
| 20260902075503 | 62 | 42 | 0.0 | 0.0 | 0.00 | 0.00 | 0.00 | 91 | 1021.8 |
| 20260902075004 | 61 | 42 | 0.0 | 0.0 | 0.00 | 0.00 | 0.00 | 92 | 1021.8 |
| 20260902074503 | 61 | 42 | 0.0 | 2.0 | 0.00 | 0.00 | 0.00 | 94 | 1021.8 |
| 20260902074004 | 60 | 40 | 0.0 | 3.0 | 0.00 | 0.00 | 0.00 | 94 | 1021.8 |
| 20260902073503 | 60 | 40 | 1.0 | 6.0 | 0.00 | 0.00 | 0.00 | 95 | 1021.8 |
| 20260902073004 | 60 | 39 | 0.0 | 3.0 | 0.00 | 0.00 | 0.00 | 96 | 1021.8 |
| 20260902072503 | 59 | 38 | 0.0 | 3.0 | 0.00 | 0.00 | 0.00 | 97 | 1021.7 |
| 20260902072002 | 59 | 38 | 0.0 | 2.0 | 0.00 | 0.00 | 0.00 | 97 | 1021.6 |
| 20260902071504 | 59 | 37 | 1.0 | 5.0 | 0.00 | 0.00 | 0.00 | 97 | 1021.6 |
| 20260902071003 | 58 | 36 | 1.0 | 3.0 | 0.00 | 0.00 | 0.00 | 97 | 1021.6 |
| 20260902070007 | 58 | 28 | 0.0 | 2.0 | 0.00 | 0.00 | 0.00 | 97 | 1021.5 |
| 20260902065504 | 58 | 28 | 0.0 | 0.0 | 0.00 | 0.00 | 0.00 | 98 | 1021.5 |
| 20260902064004 | 57 | 28 | 0.0 | 0.0 | 0.00 | 0.00 | 0.00 | 97 | 1021.3 |
| 20260902063504 | 56 | 28 | 0.0 | 0.0 | 0.00 | 0.00 | 0.00 | 96 | 1021.3 |
| 20260902063004 | 56 | 28 | 0.0 | 0.0 | 0.00 | 0.00 | 0.00 | 96 | 1021.2 |
| 20260902062503 | 56 | 28 | 0.0 | 0.0 | 0.00 | 0.00 | 0.00 | 96 | 1021.1 |
| 20260902062003 | 56 | 28 | 0.0 | 0.0 | 0.00 | 0.00 | 0.00 | 96 | 1021.1 |
| 20260902061004 | 56 | 28 | 0.0 | 0.0 | 0.00 | 0.00 | 0.00 | 96 | 1021.0 |
| 20260902060504 | 56 | 28 | 0.0 | 0.0 | 0.00 | 0.00 | 0.00 | 96 | 1021.0 |
| 20260902060004 | 57 | 28 | 0.0 | 0.0 | 0.00 | 0.00 | 0.00 | 96 | 1021.0 |
| 20260902055503 | 57 | 28 | 0.0 | 0.0 | 0.00 | 0.00 | 0.00 | 96 | 1021.0 |
| 20260902055003 | 57 | 28 | 0.0 | 2.0 | 0.00 | 0.00 | 0.00 | 96 | 1021.0 |
| 20260902053503 | 57 | 28 | 0.0 | 0.0 | 0.00 | 0.00 | 0.00 | 95 | 1020.8 |
| 20260902053005 | 57 | 28 | 0.0 | 0.0 | 0.00 | 0.00 | 0.00 | 95 | 1020.8 |
| 20260902052504 | 57 | 28 | 0.0 | 0.0 | 0.00 | 0.00 | 0.00 | 95 | 1020.9 |
| 20260902052003 | 57 | 28 | 0.0 | 0.0 | 0.00 | 0.00 | 0.00 | 95 | 1020.9 |
| 20260902051504 | 57 | 28 | 0.0 | 0.0 | 0.00 | 0.00 | 0.00 | 95 | 1021.0 |
| 20260902051004 | 57 | 28 | 0.0 | 3.0 | 0.00 | 0.00 | 0.00 | 95 | 1021.0 |
| 20260902050007 | 57 | 26 | 0.0 | 0.0 | 0.00 | 0.00 | 0.00 | 95 | 1020.8 |
| 20260902044503 | 57 | 26 | 0.0 | 0.0 | 0.00 | 0.00 | 0.00 | 94 | 1020.7 |
| 20260902044004 | 57 | 26 | 0.0 | 0.0 | 0.00 | 0.00 | 0.00 | 94 | 1020.7 |
| 20260902043504 | 57 | 26 | 0.0 | 0.0 | 0.00 | 0.00 | 0.00 | 94 | 1020.7 |
| 20260902043005 | 58 | 26 | 0.0 | 0.0 | 0.00 | 0.00 | 0.00 | 94 | 1020.7 |
| 20260902042504 | 58 | 26 | 0.0 | 0.0 | 0.00 | 0.00 | 0.00 | 94 | 1020.6 |
| 20260902042004 | 58 | 26 | 0.0 | 0.0 | 0.00 | 0.00 | 0.00 | 94 | 1020.7 |
| 20260902041503 | 58 | 26 | 0.0 | 0.0 | 0.00 | 0.00 | 0.00 | 94 | 1020.6 |
| 20260902041004 | 58 | 26 | 0.0 | 0.0 | 0.00 | 0.00 | 0.00 | 94 | 1020.7 |
| 20260902040503 | 58 | 26 | 0.0 | 0.0 | 0.00 | 0.00 | 0.00 | 94 | 1020.7 |
| 20260902040005 | 58 | 26 | 0.0 | 0.0 | 0.00 | 0.00 | 0.00 | 94 | 1020.7 |
| 20260902035503 | 58 | 26 | 0.0 | 0.0 | 0.00 | 0.00 | 0.00 | 94 | 1020.7 |
| 20260902035003 | 58 | 26 | 0.0 | 0.0 | 0.00 | 0.00 | 0.00 | 94 | 1020.6 |
| 20260902034003 | 59 | 26 | 0.0 | 0.0 | 0.00 | 0.00 | 0.00 | 94 | 1020.6 |
| 20260902033504 | 59 | 26 | 0.0 | 0.0 | 0.00 | 0.00 | 0.00 | 93 | 1020.6 |
| 20260902032503 | 59 | 26 | 0.0 | 0.0 | 0.00 | 0.00 | 0.00 | 93 | 1020.6 |
| 20260902032004 | 59 | 26 | 0.0 | 0.0 | 0.00 | 0.00 | 0.00 | 93 | 1020.6 |
| 20260902031004 | 59 | 26 | 0.0 | 0.0 | 0.00 | 0.00 | 0.00 | 93 | 1020.6 |
| 20260902030504 | 59 | 26 | 0.0 | 0.0 | 0.00 | 0.00 | 0.00 | 93 | 1020.6 |
| 20260902030004 | 59 | 26 | 0.0 | 0.0 | 0.00 | 0.00 | 0.00 | 93 | 1020.7 |
| 20260902025504 | 59 | 26 | 0.0 | 0.0 | 0.00 | 0.00 | 0.00 | 93 | 1020.6 |
| 20260902024503 | 60 | 26 | 0.0 | 0.0 | 0.00 | 0.00 | 0.00 | 93 | 1020.6 |
| 20260902023503 | 60 | 26 | 1.0 | 5.0 | 0.00 | 0.00 | 0.00 | 92 | 1020.7 |
| 20260902023003 | 60 | 26 | 0.0 | 0.0 | 0.00 | 0.00 | 0.00 | 92 | 1020.6 |
| 20260902022503 | 60 | 26 | 0.0 | 0.0 | 0.00 | 0.00 | 0.00 | 92 | 1020.7 |
| 20260902022003 | 60 | 26 | 0.0 | 0.0 | 0.00 | 0.00 | 0.00 | 92 | 1020.7 |
| 20260902021003 | 60 | 26 | 0.0 | 0.0 | 0.00 | 0.00 | 0.00 | 92 | 1020.8 |
| 20260902020504 | 60 | 26 | 0.0 | 0.0 | 0.00 | 0.00 | 0.00 | 92 | 1020.8 |
| 20260902020005 | 60 | 26 | 0.0 | 0.0 | 0.00 | 0.00 | 0.00 | 92 | 1020.8 |
| 20260902015503 | 61 | 26 | 0.0 | 0.0 | 0.00 | 0.00 | 0.00 | 92 | 1020.8 |
| 20260902015003 | 61 | 26 | 2.0 | 3.0 | 0.00 | 0.00 | 0.00 | 92 | 1020.8 |
| 20260902014504 | 61 | 26 | 0.0 | 0.0 | 0.00 | 0.00 | 0.00 | 91 | 1020.8 |
| 20260902014003 | 61 | 26 | 0.0 | 0.0 | 0.00 | 0.00 | 0.00 | 91 | 1020.8 |
| 20260902013504 | 61 | 26 | 0.0 | 0.0 | 0.00 | 0.00 | 0.00 | 91 | 1020.8 |
| 20260902012504 | 61 | 25 | 0.0 | 3.0 | 0.00 | 0.00 | 0.00 | 91 | 1021.0 |
| 20260902011504 | 61 | 25 | 0.0 | 0.0 | 0.00 | 0.00 | 0.00 | 90 | 1021.0 |
| 20260902011004 | 61 | 25 | 0.0 | 0.0 | 0.00 | 0.00 | 0.00 | 90 | 1021.0 |
| 20260902010504 | 62 | 25 | 0.0 | 0.0 | 0.00 | 0.00 | 0.00 | 90 | 1021.1 |
| 20260902010004 | 62 | 25 | 0.0 | 0.0 | 0.00 | 0.00 | 0.00 | 89 | 1021.1 |
| 20260902005503 | 62 | 25 | 0.0 | 0.0 | 0.00 | 0.00 | 0.00 | 89 | 1021.1 |
| 20260902005003 | 62 | 25 | 0.0 | 0.0 | 0.00 | 0.00 | 0.00 | 90 | 1021.0 |
| 20260902004503 | 62 | 25 | 0.0 | 0.0 | 0.00 | 0.00 | 0.00 | 90 | 1021.0 |
| 20260902004003 | 62 | 25 | 0.0 | 0.0 | 0.00 | 0.00 | 0.00 | 90 | 1021.1 |
| 20260902003504 | 62 | 25 | 0.0 | 2.0 | 0.00 | 0.00 | 0.00 | 90 | 1021.1 |
| 20260902003004 | 63 | 25 | 0.0 | 0.0 | 0.00 | 0.00 | 0.00 | 90 | 1021.0 |
| 20260902002504 | 63 | 25 | 0.0 | 0.0 | 0.00 | 0.00 | 0.00 | 89 | 1021.0 |
| 20260902002003 | 63 | 25 | 0.0 | 0.0 | 0.00 | 0.00 | 0.00 | 89 | 1021.0 |
| 20260902001504 | 63 | 25 | 0.0 | 0.0 | 0.00 | 0.00 | 0.00 | 89 | 1021.0 |
| 20260902001003 | 63 | 25 | 0.0 | 3.0 | 0.00 | 0.00 | 0.00 | 89 | 1021.0 |
| 20260901235503 | 63 | 24 | 0.0 | 0.0 | 0.00 | 0.00 | 0.00 | 88 | 1020.9 |
| 20260901235003 | 63 | 24 | 0.0 | 0.0 | 0.00 | 0.00 | 0.00 | 88 | 1020.9 |
| 20260901234504 | 63 | 24 | 0.0 | 0.0 | 0.00 | 0.00 | 0.00 | 88 | 1020.9 |
| 20260901234004 | 64 | 24 | 0.0 | 0.0 | 0.00 | 0.00 | 0.00 | 88 | 1020.9 |
| 20260901233503 | 64 | 24 | 0.0 | 0.0 | 0.00 | 0.00 | 0.00 | 88 | 1020.9 |
| 20260901233005 | 64 | 24 | 0.0 | 0.0 | 0.00 | 0.00 | 0.00 | 88 | 1020.9 |
| 20260901232004 | 64 | 24 | 0.0 | 0.0 | 0.00 | 0.00 | 0.00 | 87 | 1021.1 |
| 20260901231503 | 64 | 24 | 0.0 | 0.0 | 0.00 | 0.00 | 0.00 | 87 | 1021.1 |
| 20260901231003 | 64 | 24 | 0.0 | 0.0 | 0.00 | 0.00 | 0.00 | 86 | 1021.0 |
| 20260901230503 | 64 | 24 | 0.0 | 0.0 | 0.00 | 0.00 | 0.00 | 86 | 1020.9 |
| 20260901230004 | 65 | 24 | 0.0 | 0.0 | 0.00 | 0.00 | 0.00 | 86 | 1020.8 |
| 20260901225503 | 65 | 24 | 0.0 | 0.0 | 0.00 | 0.00 | 0.00 | 85 | 1020.8 |
| 20260901225004 | 65 | 24 | 0.0 | 0.0 | 0.00 | 0.00 | 0.00 | 85 | 1020.7 |
| 20260901224503 | 65 | 24 | 0.0 | 0.0 | 0.00 | 0.00 | 0.00 | 85 | 1020.7 |
| 20260901223503 | 65 | 24 | 0.0 | 2.0 | 0.00 | 0.00 | 0.00 | 85 | 1020.7 |
| 20260901223005 | 66 | 24 | 0.0 | 2.0 | 0.00 | 0.00 | 0.00 | 85 | 1020.6 |
| 20260901222004 | 66 | 24 | 0.0 | 6.0 | 0.00 | 0.00 | 0.00 | 85 | 1020.7 |
| 20260901221503 | 66 | 22 | 3.0 | 6.0 | 0.00 | 0.00 | 0.00 | 85 | 1020.8 |
| 20260901221004 | 66 | 22 | 3.0 | 6.0 | 0.00 | 0.00 | 0.00 | 84 | 1020.8 |
| 20260901220503 | 66 | 358 | 3.0 | 6.0 | 0.00 | 0.00 | 0.00 | 84 | 1020.8 |
| 20260901215503 | 66 | 355 | 0.0 | 3.0 | 0.00 | 0.00 | 0.00 | 84 | 1020.8 |
| 20260901215004 | 67 | 355 | 0.0 | 0.0 | 0.00 | 0.00 | 0.00 | 83 | 1020.8 |
| 20260901214504 | 67 | 355 | 1.0 | 5.0 | 0.00 | 0.00 | 0.00 | 81 | 1020.8 |
| 20260901214004 | 67 | 355 | 1.0 | 3.0 | 0.00 | 0.00 | 0.00 | 80 | 1020.8 |
| 20260901213503 | 67 | 350 | 0.0 | 0.0 | 0.00 | 0.00 | 0.00 | 79 | 1020.8 |
| 20260901213005 | 68 | 350 | 0.0 | 0.0 | 0.00 | 0.00 | 0.00 | 79 | 1020.8 |
| 20260901212504 | 68 | 350 | 0.0 | 0.0 | 0.00 | 0.00 | 0.00 | 79 | 1020.7 |
| 20260901211004 | 68 | 350 | 0.0 | 0.0 | 0.00 | 0.00 | 0.00 | 78 | 1020.5 |
| 20260901210504 | 69 | 350 | 0.0 | 0.0 | 0.00 | 0.00 | 0.00 | 77 | 1020.5 |
| 20260901210004 | 69 | 350 | 0.0 | 0.0 | 0.00 | 0.00 | 0.00 | 77 | 1020.5 |
| 20260901205503 | 69 | 350 | 0.0 | 0.0 | 0.00 | 0.00 | 0.00 | 76 | 1020.5 |
| 20260901205003 | 69 | 350 | 0.0 | 0.0 | 0.00 | 0.00 | 0.00 | 76 | 1020.4 |
| 20260901204504 | 70 | 350 | 0.0 | 0.0 | 0.00 | 0.00 | 0.00 | 76 | 1020.4 |
| 20260901204003 | 70 | 350 | 0.0 | 0.0 | 0.00 | 0.00 | 0.00 | 76 | 1020.4 |
| 20260901203504 | 70 | 350 | 0.0 | 0.0 | 0.00 | 0.00 | 0.00 | 76 | 1020.3 |
| 20260901203004 | 70 | 350 | 1.0 | 3.0 | 0.00 | 0.00 | 0.00 | 75 | 1020.3 |
| 20260901202503 | 71 | 236 | 1.0 | 3.0 | 0.00 | 0.00 | 0.00 | 75 | 1020.2 |
| 20260901202004 | 71 | 235 | 0.0 | 0.0 | 0.00 | 0.00 | 0.00 | 75 | 1020.1 |
| 20260901201004 | 71 | 235 | 1.0 | 3.0 | 0.00 | 0.00 | 0.00 | 75 | 1020.0 |
| 20260901200504 | 71 | 235 | 2.0 | 3.0 | 0.00 | 0.00 | 0.00 | 75 | 1019.9 |
| 20260901200004 | 72 | 235 | 2.0 | 5.0 | 0.00 | 0.00 | 0.00 | 74 | 1019.8 |
| 20260901195504 | 72 | 235 | 0.0 | 0.0 | 0.00 | 0.00 | 0.00 | 73 | 1019.7 |
| 20260901195003 | 72 | 235 | 0.0 | 0.0 | 0.00 | 0.00 | 0.00 | 73 | 1019.6 |
| 20260901194503 | 72 | 235 | 0.0 | 0.0 | 0.00 | 0.00 | 0.00 | 72 | 1019.5 |
| 20260901193504 | 73 | 235 | 0.0 | 0.0 | 0.00 | 0.00 | 0.00 | 71 | 1019.4 |
| 20260901193004 | 73 | 235 | 0.0 | 0.0 | 0.00 | 0.00 | 0.00 | 70 | 1019.2 |
| 20260901192503 | 74 | 235 | 0.0 | 0.0 | 0.00 | 0.00 | 0.00 | 70 | 1019.1 |
| 20260901191504 | 74 | 235 | 1.0 | 6.0 | 0.00 | 0.00 | 0.00 | 68 | 1018.9 |
| 20260901191004 | 75 | 235 | 2.0 | 3.0 | 0.00 | 0.00 | 0.00 | 68 | 1018.9 |
| 20260901190503 | 75 | 235 | 0.0 | 3.0 | 0.00 | 0.00 | 0.00 | 67 | 1018.9 |
| 20260901184503 | 76 | 232 | 5.0 | 7.0 | 0.00 | 0.00 | 0.00 | 65 | 1019.0 |
| 20260901184004 | 76 | 246 | 2.0 | 6.0 | 0.00 | 0.00 | 0.00 | 65 | 1019.1 |
| 20260901183504 | 76 | 246 | 2.0 | 6.0 | 0.00 | 0.00 | 0.00 | 65 | 1019.1 |
| 20260901183005 | 77 | 246 | 6.0 | 10.0 | 0.00 | 0.00 | 0.00 | 64 | 1019.1 |
| 20260901182003 | 77 | 244 | 5.0 | 9.0 | 0.00 | 0.00 | 0.00 | 64 | 1019.2 |
| 20260901181504 | 77 | 233 | 5.0 | 9.0 | 0.00 | 0.00 | 0.00 | 63 | 1019.2 |
| 20260901181004 | 78 | 227 | 7.0 | 10.0 | 0.00 | 0.00 | 0.00 | 63 | 1019.1 |
| 20260901180504 | 78 | 241 | 5.0 | 12.0 | 0.00 | 0.00 | 0.00 | 62 | 1019.1 |
| 20260901175504 | 78 | 242 | 6.0 | 10.0 | 0.00 | 0.00 | 0.00 | 61 | 1019.1 |
| 20260901175004 | 78 | 235 | 2.0 | 8.0 | 0.00 | 0.00 | 0.00 | 60 | 1019.0 |
| 20260901174504 | 79 | 239 | 7.0 | 12.0 | 0.00 | 0.00 | 0.00 | 60 | 1018.9 |
| 20260901174003 | 79 | 227 | 5.0 | 10.0 | 0.00 | 0.00 | 0.00 | 59 | 1018.9 |
| 20260901173504 | 79 | 247 | 6.0 | 12.0 | 0.00 | 0.00 | 0.00 | 58 | 1018.8 |
| 20260901173005 | 79 | 231 | 7.0 | 12.0 | 0.00 | 0.00 | 0.00 | 58 | 1018.6 |
| 20260901172504 | 80 | 235 | 6.0 | 10.0 | 0.00 | 0.00 | 0.00 | 59 | 1018.6 |
| 20260901171503 | 80 | 235 | 7.0 | 10.0 | 0.00 | 0.00 | 0.00 | 58 | 1018.4 |
| 20260901171003 | 80 | 243 | 6.0 | 13.0 | 0.00 | 0.00 | 0.00 | 59 | 1018.4 |
| 20260901165504 | 80 | 252 | 9.0 | 14.0 | 0.00 | 0.00 | 0.00 | 58 | 1018.3 |
| 20260901165004 | 80 | 244 | 7.0 | 15.0 | 0.00 | 0.00 | 0.00 | 57 | 1018.3 |
| 20260901164504 | 81 | 241 | 7.0 | 13.0 | 0.00 | 0.00 | 0.00 | 55 | 1018.3 |
| 20260901163004 | 82 | 228 | 6.0 | 9.0 | 0.00 | 0.00 | 0.00 | 55 | 1018.2 |
| 20260901162504 | 81 | 242 | 6.0 | 12.0 | 0.00 | 0.00 | 0.00 | 56 | 1018.1 |
| 20260901162004 | 82 | 236 | 7.0 | 15.0 | 0.00 | 0.00 | 0.00 | 55 | 1018.1 |
| 20260901161503 | 82 | 258 | 6.0 | 12.0 | 0.00 | 0.00 | 0.00 | 54 | 1018.1 |
| 20260901161003 | 82 | 236 | 9.0 | 14.0 | 0.00 | 0.00 | 0.00 | 52 | 1018.1 |
| 20260901160504 | 82 | 254 | 6.0 | 13.0 | 0.00 | 0.00 | 0.00 | 52 | 1018.1 |
| 20260901160004 | 82 | 231 | 7.0 | 13.0 | 0.00 | 0.00 | 0.00 | 54 | 1018.1 |
| 20260901155504 | 83 | 221 | 8.0 | 14.0 | 0.00 | 0.00 | 0.00 | 52 | 1018.1 |
| 20260901155004 | 82 | 242 | 7.0 | 14.0 | 0.00 | 0.00 | 0.00 | 52 | 1018.1 |
| 20260901154503 | 83 | 228 | 8.0 | 15.0 | 0.00 | 0.00 | 0.00 | 51 | 1018.1 |
| 20260901154003 | 83 | 230 | 7.0 | 12.0 | 0.00 | 0.00 | 0.00 | 53 | 1018.1 |
| 20260901153503 | 83 | 236 | 10.0 | 15.0 | 0.00 | 0.00 | 0.00 | 52 | 1018.0 |
| 20260901153004 | 83 | 240 | 9.0 | 15.0 | 0.00 | 0.00 | 0.00 | 51 | 1018.0 |
| 20260901152503 | 82 | 236 | 7.0 | 15.0 | 0.00 | 0.00 | 0.00 | 52 | 1018.0 |
| 20260901152003 | 82 | 239 | 8.0 | 16.0 | 0.00 | 0.00 | 0.00 | 52 | 1018.1 |
| 20260901151504 | 82 | 231 | 7.0 | 15.0 | 0.00 | 0.00 | 0.00 | 51 | 1018.0 |
| 20260901151003 | 83 | 251 | 9.0 | 15.0 | 0.00 | 0.00 | 0.00 | 52 | 1018.1 |
| 20260901150504 | 82 | 240 | 9.0 | 15.0 | 0.00 | 0.00 | 0.00 | 52 | 1018.0 |
| 20260901150005 | 82 | 249 | 7.0 | 14.0 | 0.00 | 0.00 | 0.00 | 52 | 1018.0 |
| 20260901145503 | 83 | 244 | 9.0 | 15.0 | 0.00 | 0.00 | 0.00 | 52 | 1018.0 |
| 20260901145003 | 82 | 246 | 8.0 | 12.0 | 0.00 | 0.00 | 0.00 | 52 | 1018.0 |
| 20260901144504 | 82 | 246 | 8.0 | 15.0 | 0.00 | 0.00 | 0.00 | 52 | 1017.9 |
| 20260901144004 | 82 | 256 | 8.0 | 13.0 | 0.00 | 0.00 | 0.00 | 52 | 1017.9 |
| 20260901143503 | 83 | 254 | 7.0 | 15.0 | 0.00 | 0.00 | 0.00 | 52 | 1017.9 |
| 20260901143005 | 82 | 232 | 8.0 | 15.0 | 0.00 | 0.00 | 0.00 | 51 | 1017.9 |
| 20260901142004 | 82 | 239 | 9.0 | 14.0 | 0.00 | 0.00 | 0.00 | 52 | 1017.9 |
| 20260901141504 | 83 | 251 | 6.0 | 12.0 | 0.00 | 0.00 | 0.00 | 51 | 1018.0 |
| 20260901141003 | 83 | 243 | 7.0 | 13.0 | 0.00 | 0.00 | 0.00 | 52 | 1018.1 |
| 20260901140005 | 83 | 251 | 7.0 | 12.0 | 0.00 | 0.00 | 0.00 | 52 | 1018.1 |
| 20260901135504 | 82 | 249 | 9.0 | 18.0 | 0.00 | 0.00 | 0.00 | 52 | 1018.2 |
| 20260901135003 | 82 | 230 | 10.0 | 14.0 | 0.00 | 0.00 | 0.00 | 51 | 1018.2 |
| 20260901134504 | 82 | 226 | 9.0 | 15.0 | 0.00 | 0.00 | 0.00 | 52 | 1018.3 |
| 20260901133504 | 82 | 266 | 6.0 | 12.0 | 0.00 | 0.00 | 0.00 | 50 | 1018.4 |
| 20260901133005 | 81 | 246 | 6.0 | 10.0 | 0.00 | 0.00 | 0.00 | 52 | 1018.5 |
| 20260901132503 | 81 | 255 | 7.0 | 10.0 | 0.00 | 0.00 | 0.00 | 52 | 1018.5 |
| 20260901132004 | 81 | 254 | 6.0 | 12.0 | 0.00 | 0.00 | 0.00 | 53 | 1018.6 |
| 20260901131504 | 80 | 269 | 5.0 | 12.0 | 0.00 | 0.00 | 0.00 | 54 | 1018.6 |
| 20260901131003 | 80 | 336 | 3.0 | 10.0 | 0.00 | 0.00 | 0.00 | 54 | 1018.6 |
| 20260901130504 | 81 | 238 | 4.0 | 8.0 | 0.00 | 0.00 | 0.00 | 53 | 1018.6 |
| 20260901130004 | 81 | 243 | 3.0 | 9.0 | 0.00 | 0.00 | 0.00 | 52 | 1018.5 |
| 20260901125003 | 81 | 238 | 5.0 | 12.0 | 0.00 | 0.00 | 0.00 | 52 | 1018.6 |
| 20260901124505 | 80 | 230 | 6.0 | 8.0 | 0.00 | 0.00 | 0.00 | 52 | 1018.6 |
| 20260901124003 | 80 | 314 | 6.0 | 10.0 | 0.00 | 0.00 | 0.00 | 52 | 1018.7 |
| 20260901123005 | 81 | 245 | 6.0 | 12.0 | 0.00 | 0.00 | 0.00 | 49 | 1018.9 |
| 20260901122003 | 80 | 260 | 5.0 | 10.0 | 0.00 | 0.00 | 0.00 | 50 | 1019.1 |
| 20260901121504 | 79 | 270 | 3.0 | 10.0 | 0.00 | 0.00 | 0.00 | 51 | 1019.2 |
| 20260901121004 | 79 | 276 | 3.0 | 8.0 | 0.00 | 0.00 | 0.00 | 52 | 1019.3 |
| 20260901120504 | 79 | 325 | 5.0 | 8.0 | 0.00 | 0.00 | 0.00 | 52 | 1019.3 |
| 20260901120004 | 79 | 257 | 2.0 | 8.0 | 0.00 | 0.00 | 0.00 | 53 | 1019.2 |
| 20260901115503 | 79 | 273 | 5.0 | 8.0 | 0.00 | 0.00 | 0.00 | 54 | 1019.1 |
| 20260901115003 | 78 | 350 | 2.0 | 6.0 | 0.00 | 0.00 | 0.00 | 52 | 1019.2 |
| 20260901114504 | 79 | 258 | 2.0 | 9.0 | 0.00 | 0.00 | 0.00 | 52 | 1019.2 |
| 20260901114004 | 79 | 242 | 5.0 | 9.0 | 0.00 | 0.00 | 0.00 | 50 | 1019.2 |
| 20260901113504 | 79 | 239 | 4.0 | 7.0 | 0.00 | 0.00 | 0.00 | 49 | 1019.2 |
| 20260901113004 | 79 | 263 | 3.0 | 7.0 | 0.00 | 0.00 | 0.00 | 51 | 1019.2 |
| 20260901112504 | 78 | 215 | 2.0 | 7.0 | 0.00 | 0.00 | 0.00 | 52 | 1019.2 |
| 20260901112004 | 77 | 59 | 1.0 | 2.0 | 0.00 | 0.00 | 0.00 | 55 | 1019.2 |
| 20260901111004 | 76 | 59 | 0.0 | 1.0 | 0.00 | 0.00 | 0.00 | 57 | 1019.4 |
| 20260901110005 | 76 | 59 | 0.0 | 1.0 | 0.00 | 0.00 | 0.00 | 57 | 1019.7 |
| 20260901105504 | 76 | 58 | 0.0 | 3.0 | 0.00 | 0.00 | 0.00 | 57 | 1019.7 |
| 20260901105004 | 75 | 58 | 0.0 | 2.0 | 0.00 | 0.00 | 0.00 | 57 | 1019.8 |
| 20260901104504 | 75 | 58 | 0.0 | 2.0 | 0.00 | 0.00 | 0.00 | 59 | 1019.9 |
| 20260901104004 | 74 | 58 | 0.0 | 3.0 | 0.00 | 0.00 | 0.00 | 61 | 1019.8 |
| 20260901103503 | 74 | 58 | 1.0 | 3.0 | 0.00 | 0.00 | 0.00 | 64 | 1019.8 |
| 20260901102503 | 73 | 59 | 1.0 | 5.0 | 0.00 | 0.00 | 0.00 | 68 | 1019.9 |
| 20260901102003 | 72 | 65 | 1.0 | 2.0 | 0.00 | 0.00 | 0.00 | 67 | 1019.9 |
| 20260901101504 | 72 | 65 | 0.0 | 0.0 | 0.00 | 0.00 | 0.00 | 69 | 1019.9 |
| 20260901101004 | 71 | 65 | 0.0 | 2.0 | 0.00 | 0.00 | 0.00 | 70 | 1019.9 |
| 20260901100504 | 70 | 65 | 1.0 | 3.0 | 0.00 | 0.00 | 0.00 | 73 | 1019.9 |
| 20260901100005 | 70 | 65 | 0.0 | 2.0 | 0.00 | 0.00 | 0.00 | 74 | 1020.0 |
| 20260901095504 | 69 | 65 | 1.0 | 3.0 | 0.00 | 0.00 | 0.00 | 74 | 1020.0 |
| 20260901094504 | 68 | 67 | 0.0 | 0.0 | 0.00 | 0.00 | 0.00 | 76 | 1020.1 |
| 20260901094003 | 67 | 67 | 0.0 | 0.0 | 0.00 | 0.00 | 0.00 | 78 | 1020.1 |
| 20260901093504 | 67 | 67 | 0.0 | 0.0 | 0.00 | 0.00 | 0.00 | 77 | 1020.0 |
| 20260901093004 | 66 | 67 | 0.0 | 0.0 | 0.00 | 0.00 | 0.00 | 79 | 1020.0 |